Flag for U.S.A. Weather past 2 weeks in Riverside, California, U.S.A.

Now
73 °F

Clear.


Feels Like: 77 °F
Forecast: 71 / 101 °F
Wind: No wind

Location: Riverside Municipal Airport

Current Time: Aug 29, 2015 at 7:42:19 AM

Latest Report: Aug 29, 2015 at 6:53 AM


Visibility: 10 mi

Pressure: 29.84 "Hg

Humidity: 55%

Dew point: 56 °F

Location of RiversideLocation

Historic Weather in Riverside — Graph

°F

Riverside temperature yesterday

Maximum temperature yesterday: 104 °F (at 2:53 PM)
Minimum temperature yesterday: 74 °F (at 4:53 AM)
Average temperature yesterday: 88 °F

Past Weeks' High & Low Weather Summary

 TemperatureHumidityPressure
High106 °F (Aug 15, 1:53 PM)91% (Aug 19, 6:53 AM)29.95 "Hg (Aug 19, 6:53 AM)
Low65 °F (Aug 19, 5:53 AM)8% (Aug 16, 1:53 PM)29.74 "Hg (Aug 16, 5:53 PM)
Average81 °F50%29.86 "Hg
* Reported Aug 14 5:53 AM — Aug 29 5:53 AM, Riverside, Weather by CustomWeather, © 2015

Note: Actual official high and low records may vary slightly from our data, if they occured in-between our weather recording intervals... More about our weather records

Advertising

Riverside weather history for previous 24 hours

 ConditionsComfort  
Time TempWeatherWind HumidityBarometerVisibility
5:53 AM
Sat, Aug 29
71 °FClear.3 mph59%29.83 "Hg10 mi
4:53 AM74 °FClear.No wind52%29.83 "Hg10 mi
3:53 AM75 °FClear.No wind52%29.82 "Hg10 mi
2:53 AM76 °FClear.No wind50%29.83 "Hg10 mi
1:53 AM78 °FClear.No wind46%29.82 "Hg10 mi
12:53 AM80 °FClear.No wind42%29.83 "Hg10 mi
11:53 PM
Fri, Aug 28
82 °FClear.No wind38%29.83 "Hg10 mi
10:53 PM83 °FClear.3 mph36%29.83 "Hg10 mi
9:53 PM85 °FClear.No wind34%29.83 "Hg10 mi
8:53 PM87 °FClear.5 mph32%29.81 "Hg10 mi
7:53 PM89 °FSunny.8 mph30%29.79 "Hg10 mi
6:53 PM93 °FSunny.12 mph23%29.77 "Hg10 mi
5:53 PM96 °FSunny.14 mph19%29.76 "Hg10 mi
4:53 PM101 °FSunny.15 mph16%29.76 "Hg10 mi
3:53 PM104 °FSunny.17 mph13%29.75 "Hg10 mi
2:53 PM104 °FSunny.10 mph16%29.77 "Hg10 mi
1:53 PM103 °FSunny.7 mph18%29.79 "Hg10 mi
12:53 PM102 °FSunny.8 mph17%29.81 "Hg10 mi
11:53 AM98 °FSunny.N/A20%29.84 "Hg10 mi
10:53 AM94 °FSunny.No wind23%29.85 "Hg10 mi
9:53 AM90 °FSunny.No wind32%29.86 "Hg10 mi
8:53 AM84 °FSunny.3 mph41%29.87 "Hg10 mi
7:53 AM78 °FSunny.No wind52%29.88 "Hg10 mi
Weather by CustomWeather, © 2015

See weather overviewHow to use our weather pages